Satellite: NOAA-12
Catalog number: 21263
Epoch time:      09357.53898514
Element set:    0383
Inclination:      098.7689 deg
RA of node:       005.6832 deg
Eccentricity:    0.0011787
Arg of perigee:   320.4256 deg
Mean anomaly:     039.6063 deg
Mean motion:   14.25608068 rev/day
Decay rate:        3.2e-07 rev/day^2
Epoch rev:           96737
Checksum:              330

Satellite: MET-3/5
Catalog number: 21655
Epoch time:      09357.61605415
Element set:    0702
Inclination:      082.5569 deg
RA of node:       072.6862 deg
Eccentricity:    0.0014865
Arg of perigee:   070.6391 deg
Mean anomaly:     289.6251 deg
Mean motion:   13.17021504 rev/day
Decay rate:        5.1e-07 rev/day^2
Epoch rev:           88256
Checksum:              307

Satellite: MET-2/21
Catalog number: 22782
Epoch time:      09357.64161143
Element set:    0650
Inclination:      082.5473 deg
RA of node:       031.7165 deg
Eccentricity:    0.0022564
Arg of perigee:   171.4906 deg
Mean anomaly:     188.6646 deg
Mean motion:   13.83640110 rev/day
Decay rate:       -2.8e-07 rev/day^2
Epoch rev:           82380
Checksum:              295

Satellite: OKEAN-4
Catalog number: 23317
Epoch time:      09358.34025199
Element set:     107
Inclination:      082.5400 deg
RA of node:       157.0395 deg
Eccentricity:    0.0023844
Arg of perigee:   097.1392 deg
Mean anomaly:     263.2546 deg
Mean motion:   14.82749175 rev/day
Decay rate:        9.6e-07 rev/day^2
Epoch rev:           82054
Checksum:              308

Satellite: NOAA-14
Catalog number: 23455
Epoch time:      09357.55737576
Element set:    0879
Inclination:      098.8945 deg
RA of node:       074.4211 deg
Eccentricity:    0.0009620
Arg of perigee:   019.2817 deg
Mean anomaly:     340.8745 deg
Mean motion:   14.13774813 rev/day
Decay rate:       -5.7e-07 rev/day^2
Epoch rev:           77268
Checksum:              348

Satellite: NOAA-15
Catalog number: 25338
Epoch time:      09357.80347846
Element set:    0206
Inclination:      098.6028 deg
RA of node:       343.0315 deg
Eccentricity:    0.0009964
Arg of perigee:   221.8709 deg
Mean anomaly:     138.1700 deg
Mean motion:   14.24797893 rev/day
Decay rate:       -5.6e-07 rev/day^2
Epoch rev:           60377
Checksum:              328

Satellite: RESURS
Catalog number: 25394
Epoch time:      09358.13131071
Element set:     389
Inclination:      098.3190 deg
RA of node:       020.6278 deg
Eccentricity:    0.0002038
Arg of perigee:   039.7986 deg
Mean anomaly:     320.3341 deg
Mean motion:   14.24191496 rev/day
Decay rate:       -3.5e-07 rev/day^2
Epoch rev:           59543
Checksum:              297

Satellite: FENGYUN1
Catalog number: 25730
Epoch time:      09358.37406430
Element set:     931
Inclination:      098.7738 deg
RA of node:       323.0169 deg
Eccentricity:    0.0024139
Arg of perigee:   035.3251 deg
Mean anomaly:     324.9506 deg
Mean motion:   14.08151778 rev/day
Decay rate:       9.79e-06 rev/day^2
Epoch rev:           54708
Checksum:              316

Satellite: OKEAN-0
Catalog number: 25860
Epoch time:      09357.48436696
Element set:    0869
Inclination:      097.8099 deg
RA of node:       331.3919 deg
Eccentricity:    0.0000665
Arg of perigee:   051.9956 deg
Mean anomaly:     308.1302 deg
Mean motion:   14.73603864 rev/day
Decay rate:        4.5e-07 rev/day^2
Epoch rev:           56102
Checksum:              330

Satellite: NOAA-16
Catalog number: 26536
Epoch time:      09357.84392403
Element set:    0684
Inclination:      099.1773 deg
RA of node:       006.1185 deg
Eccentricity:    0.0011338
Arg of perigee:   108.9192 deg
Mean anomaly:     251.3161 deg
Mean motion:   14.12541349 rev/day
Decay rate:      -1.60e-06 rev/day^2
Epoch rev:           47707
Checksum:              303

Satellite: NOAA-17
Catalog number: 27453
Epoch time:      09357.63269370
Element set:    0682
Inclination:      098.4583 deg
RA of node:       049.9223 deg
Eccentricity:    0.0010726
Arg of perigee:   292.3353 deg
Mean anomaly:     067.6709 deg
Mean motion:   14.24116563 rev/day
Decay rate:     -.00000000 rev/day^2
Epoch rev:           38971
Checksum:              314

Satellite: NOAA-18
Catalog number: 28654
Epoch time:      09357.69567283
Element set:    0164
Inclination:      098.9308 deg
RA of node:       299.6554 deg
Eccentricity:    0.0014234
Arg of perigee:   185.0580 deg
Mean anomaly:     175.0454 deg
Mean motion:   14.11312635 rev/day
Decay rate:       2.18e-06 rev/day^2
Epoch rev:           23668
Checksum:              332

Satellite: NOAA-19
Catalog number: 33591
Epoch time:      09357.64563062
Element set:    0371
Inclination:      098.7704 deg
RA of node:       298.6750 deg
Eccentricity:    0.0015104
Arg of perigee:   067.8429 deg
Mean anomaly:     292.4327 deg
Mean motion:   14.11009814 rev/day
Decay rate:      -1.53e-06 rev/day^2
Epoch rev:           04515
Checksum:              310

/EX
SB KEPS @ AMSAT  $ORB09358.M
Orbital Elements  09358.MISC

HR AMSAT ORBITAL ELEMENTS FOR MANNED AND MISCELLANEOUS SATELLITES
FROM WA5QGD FORT WORTH,TX December 24, 2009
Send Subscribe/unsubscribe to KEPS at 
http://www.amsat.org/mailman/listinfo/keps
BID: ORB09358.M
TO ALL RADIO AMATEURS BT

